Погода в Гагарине

Погода в Гагарине : погода сейчас, прогноз погоды и архив. Всё, что Вы хотите узнать о погоде в Гагарине!

Хотите узнать прогноз погоды в Гагарине? Тогда Вам сюда: Погода в Гагарине

Поиск расширенной информации на нашем сайте:

Другие новости

Новости СМИ2

Главная страница сайта

Новости сайта

02.10.2013

Напоминаем, что на нашем новом сайте вы можете получить высокодетализированные прогнозы погоды по пунктам России, СНГ и мира (включающие важные для авиации метеовеличины, такие как направление и скорость ветра, видимость, явления погоды, количество и форма облачности, нижняя и верхняя граница облачности), а также ознакомиться с разнообразными материалами по авиационной метеорологии и подборкой полезных ссылок на эту тему.

Сайт Метеоцентр.Азия посвящён разработке технологий оптимизации авиаметеорологического обслуживания, включая проектирование и перспективное создание нескольких автоматизированных авиаметеорологических систем:
- система выпуска высокодетальных прогностических карт явлений погоды для нижнего воздушного пространства по России и ближнему зарубежью;
- система верификации прогнозов TAF (выпускаемых синоптиками официальных АМСГ РФ и ближнего зарубежья) и AUTOTAF (выпускаемых сайтом Метеоцентр.Азия) - выявление ошибок, онлайн-сопоставление с фактической погодой METAR, автоматическое внесение коррективов в прогнозы при резком отклонении фактической погоды от прогноза, подсчёт оправдываемости прогнозов по элементам и в целом;
- система обработки, анализа и отображения авиаметеорологической информации для применения провайдерами метеорологической информации.

Рекомендуем: Не работает компьютер мастер компьютерная помощь.

Погода в Гагарине - сегодня

Время (UTC), дата Ветер
(°,м/с) 
Видим.   Явления Облачность Т
(°С)
Тd
(°С)
f(%) Тe
(°С)
Pmin
(гПа)
dP
(гПа)
Po
(мм)
O2
(г/м3)
Тmin Tmax R s Состояние
почвы
18 24.06.17 тихо ()   12000 м    10/0 средняя, верхняя 
[As op|Ci fib]
+14.2 +9.1 71 +15  1006.6  -0.2  738  281    +19       
21 24.06.17 тихо ()   25000 м    6/0 средняя 
[Ac As]
+11.5 +8.2 80 +12  1006.7  0.1  738  284           
00 25.06.17 160 (Ю) 24000 м  {ливн. осадки}  10/0 средняя 
[Ac As]
+12.5 +8.7 78 +14  1006.1  -0.5  737  283           
03 25.06.17 190 (Ю) 8000 м  слаб. дождь  10/0 средняя 
[Ac As]
+11.9 +10.3 90 +14  1005.5  -0.6  737  283  +11.2    0.8     
06 25.06.17 220 (ЮЗ) 7000 м  дымка{дождь}  10/10 300 м 
[St]
+13.8 +12.6 92 +19  1005.3  737  280  +11.2      влажная 
09 25.06.17 230 (ЮЗ) 12000 м  {дождь}  6/6 480 м 
[St]
+17.8 +13.3 75 +24  1005.2  0.1  737  276           
12 25.06.17 220 (ЮЗ) 12000 м  {ливн. осадки}  8/8 700 м 
[Cu med, cong]
+19.7 +12.8 64 +26  1005.1  0.1  737  275           
15 25.06.17 210 (ЮЗ) 12000 м  {ливн. осадки}  4/4 1000 м 
[Cu med, cong]
+21.3 +13 59 +27  1004.3  -0.7  737  273         
18 25.06.17 240 (ЮЗ) 11000 м  слаб. ливневой дождь  10/10 700 м кучево-дожд. 
[Cb cap]
+17 +14.1 83 +26  1005.1  0.5  737  277    +21.8  0.0     
21 25.06.17 220 (ЮЗ) 9000 м  дымка{ливн. осадки}  10/8 700 м кучево-дожд., средняя 
[Cb cap|Ac As]
+14.7 +13.6 93 +22  1006.2  0.9  738  279           
00 26.06.17 220 (ЮЗ) 8000 м  дымка{ливн. осадки}  ясно 
+13.2 +12.2 94 +19  1006.5  0.2  738  281           
03 26.06.17 210 (ЮЗ) 11000 м    ясно 
+13.5 +11.1 85 +17  1006.1  -0.4  737  281  +12.3    0.0     
06 26.06.17 200 (Ю) 12000 м    9/0 средняя 
[Ac As]
+16.8 +12.2 74 +22  1004.8  -1  737  277  +12.3    0.0    влажная 
09 26.06.17 220 (ЮЗ) 12000 м    9/3 600 м средняя 
[Cu hum|Ac trans]
+21.3 +14.9 67 +30  1003.9  -0.4  736  272           
12 26.06.17 230 (ЮЗ) 5{12}  12000 м  в посл. час ливневой дождь  8/5 600 м кучево-дожд., средняя, верхняя 
[Cb cap|Ac cuf|Ci ing]
+20.4 +15 71 +30  1003.2  -0.7  736  273           
15 26.06.17 190 (Ю) 12000 м    9/5 600 м кучево-дожд., средняя, верхняя 
[Cb calv|Ac cuf|Ci ing]
+21.8 +14.4 63 +30  1001.9  -1.2  735  271      0.3     
18 26.06.17 210 (ЮЗ) 4{10}  12000 м    8/4 600 м кучево-дожд., средняя 
[Cb calv|Ac cuf]
+18.5 +15.7 84 +29  1001.9  -0.3  735  274    +23  0.3     
21 26.06.17 250 (З) 1{14}  8000 м  дымка{ливн. осадки}  3/3 600 м 
[Sc diur, vesp]
+13.6 +12.3 92 +20  1004.6  2.2  736  280           
00 27.06.17 210 (ЮЗ) 9000 м  дымка{ливн. осадки}  8/4 600 м средняя 
[Sc|Ac trans]
+11 +9.4 90 +13  1005.4  0.5  737  284           
03 27.06.17 240 (ЮЗ) 12000 м  в посл. час ливневой дождь  8/5 600 м кучево-дожд., средняя 
[Cb cap|Ac cuf]
+12.6 +9.9 84 +13  1006  0.7  737  282  +10.9       
06 27.06.17 260 (З) 12000 м  {ливн. осадки}  3/3 600 м 
[Cu hum]
+15.5 +8.1 61 +16  1006.5  0.7  738  280  +10.9      мокрая 
09 27.06.17 250 (З) 3{12}  12000 м    4/4 600 м 
[Cu med, cong]
+18.1 +7.2 49 +19  1007.4  1.1  739  278           
12 27.06.17 240 (ЮЗ) 4{12}  12000 м    9/9 1000 м кучево-дожд. 
[Cb calv]
+19.2 +7.1 45 +20  1007.9  0.6  739  277           
15 27.06.17 240 (ЮЗ) 12000 м    3/3 1000 м 
[Cu med, cong]
+20 +7.5 44 +20  1007.8  739  276           
18 27.06.17 260 (З) 12000 м    1/1 1000 м 
[Cu med, cong]
+16.9 +7.3 53 +18  1009.1  740  279    +20.3       
Время (UTC), дата Ветер
(°,м/с) 
Видим.   Явления Облачность Т
(°С)
Тd
(°С)
f(%) Тe
(°С)
Pmin
(гПа)
dP
(гПа)
Po
(мм)
O2
(г/м3)
Тmin Tmax R s Состояние
почвы

Для получения пояснительной информации подведите курсор к названию столбца.

ПОГОДА в Гагарине - архив

Всё, что Вы хотите узнать о погоде в Гагарине - удобно и подробно!

Выберите нужную дату (начиная с 1 января 2015* года) и нажмите кнопку "Найти".
Будут отображены архивные сводки погоды по пункту Гагарин, начиная с указанной даты.


Отображать данные в формате CSV (для использования в таблицах Excel)


Внимание! Наш архив погоды предназначен исключительно для личного некоммерческого использования в познавательных целях. Если Вам необходимы официальные справки о состоянии погоды (для производственных, юридических, коммерческих и т.п. целей), обращайтесь в органы Росгидромета.

*Примечание: данная дата относится к архиву по метеостанциям СССР (Россия, СНГ, Балтия).
Архив по метеостанциям Зарубежной Европы и Азии (кроме Китая) хранится 10 дней, по другим регионам земного шара (Китай, Африка, Америка, Австралия, Океания) - 1 день.

Гагарин - район местоположения метеостанции


Название, широта, долгота, высота метеостанции:
Гагарин 55.5°ш. 35°д. 194 м над ур. моря [Российская Федерация]

Дополнительная информация

В oтличие oт бoльшинства пoгoдных сайтoв мы публикуем пoдрoбную метеoинфoрмацию в детальнoм прoфессиoнальнoм фoрмате.

Характеристики температуры и влажнoсти вoздуха измеряются на высoте 2 м в тени вдали oт зданий и деревьев.
Скoрoсть ветра измеряется на высoте 10 м (на урoвне рoста челoвека скoрoсть ветра ниже в 1.5-2 раза). Если метеoстанция нахoдится в гoрoде или в лесу, тo скoрoсть ветра занижена на 2-4 м/с пo сравнению с oткрытым местoм. Скoрoсть ветра над акватoриями крупных рек и oзёр, а также на вершинах хoлмoв на 2-5 м/с выше, чем в oбычных услoвиях.
Атмoсфернoе давление в разных тoчках местнoсти мoжет значительнo oтличаться oт давления на метеoстанции, в зависимoсти oт услoвий рельефа (при пoдъёме на 10 м давление пoнижается примернo на 1 мм рт.ст.).